[[{"header":{"parameterUnit":"m.s-1","parameterCategory":1,"la1":30.2991,"la2":30.254,"lo1":-89.0895,"lo2":-89.0444,"dy":0.0017,"dx":0.0017,"nx":28,"ny":28,"refTime":"2025-04-22T03:00:00:Z","depth":0,"parameterNumber":2,"parameterNumberName":"U-component_of_WINDS"},"data":[0,0,0,0,0,0,0,0,0,0,0,0,0,0,0,0,0,0,0,0,0,0,0,0,0,0,0,0,0,0,0,0,0,0,0,0,0,0,0,0,0,0,0,0,0,0,0,0,0,0,0,0,0,0,0,0,0,0,-2.0076,-2.0077,0,-2.0157,-2.0158,-2.0159,-2.0175,-2.0174,-2.0174,-2.0173,-2.0258,-2.0261,-2.0263,0,0,0,0,0,0,0,0,0,0,0,0,0,-1.9939,-1.9941,-2.0076,-2.0077,-2.0078,-2.0157,-2.0158,-2.0159,-2.0175,-2.0174,-2.0173,-2.0173,-2.0257,-2.026,-2.0264,0,0,0,0,0,0,0,0,0,0,0,0,0,-2.0007,-1.9942,-2.0076,-2.0096,-2.0098,-2.0157,-2.0158,-2.0159,-2.0175,-2.0174,-2.0173,-2.0172,-2.0256,-2.026,-2.0264,-2.031,0,0,-2.0277,-2.0279,0,0,0,0,0,0,0,0,-2.0003,-2.0012,-2.0092,-2.0094,-2.0097,-2.0155,-2.0141,-2.021,-2.0175,-2.0146,-2.0173,-2.0172,-2.0224,-2.0231,-2.0249,-2.0314,-2.0317,-2.0278,-2.028,-2.0282,-2.0283,0,0,0,0,0,0,0,-1.9998,-2.0009,-2.0108,-2.0093,-2.0096,-2.0101,-2.011,-2.0154,-2.019,-2.0148,-2.015,-2.0159,-2.0226,-2.0244,-2.0251,-2.0318,-2.0277,-2.0281,-2.0284,-2.0286,-2.0425,-2.0426,0,0,0,0,0,0,-1.999,-2.0005,-2.0106,-2.0111,-2.0047,-2.0105,-2.0114,-2.0137,-2.0189,-2.0196,-2.016,-2.0159,-2.0238,-2.0246,-2.0254,-2.031,-2.0282,-2.0286,-2.0288,-2.0424,-2.0425,-2.0427,0,0,0,0,0,0,-1.9987,-1.9999,-2.0103,-2.0058,-2.0072,-2.0108,-2.0134,-2.0139,-2.0158,-2.0198,-2.0204,-2.0172,-2.0237,-2.0248,-2.0295,-2.0313,-2.0288,-2.0292,-2.0423,-2.0425,-2.0426,-2.0424,0,0,0,0,0,0,-1.9983,-1.9997,-2.0014,-2.0058,-2.0074,-2.0142,-2.0135,-2.0142,-2.0165,-2.0165,-2.0211,-2.0218,-2.0237,-2.0289,-2.03,-2.0319,-2.0295,-2.0421,-2.0424,-2.0426,-2.0422,-2.0425,-2.0427,0,0,0,0,0,-1.9978,-2.0011,-2.0015,-2.0027,-2.0096,-2.0143,-2.0152,-2.0173,-2.0166,-2.0184,-2.021,-2.0216,-2.031,-2.0294,-2.0306,-2.0327,-2.042,-2.0423,-2.0425,-2.0421,-2.0425,-2.0427,0,0,0,0,0,0,-1.9969,-2.0017,-2.0022,-2.007,-2.0102,-2.0146,-2.0169,-2.0176,-2.0212,-2.0211,-2.0236,-2.0246,-2.0293,-2.0315,-2.0296,-2.0374,-2.0365,-2.037,-2.0357,-2.0361,-2.0363,-2.0357,-2.0299,0,0,0,0,0,-1.9973,-2.0006,-2.0047,-2.0085,-2.0101,-2.0132,-2.0154,-2.0167,-2.0202,-2.0216,-2.0245,-2.0279,-2.0316,-2.034,-2.0376,-2.0426,-2.0436,-2.0446,-2.0449,-2.0451,-2.0455,-2.0483,-2.0488,-2.0435,-2.0435,-2.0435,0,0,-1.9981,-2.0011,-2.0031,-2.0084,-2.0111,-2.0146,-2.0143,-2.018,-2.0207,-2.0221,-2.0268,-2.0291,-2.033,-2.0379,-2.0402,-2.0399,-2.0472,-2.0454,-2.0455,-2.0458,-2.0486,-2.0491,-2.0495,-2.0437,-2.0437,-2.0436,0,0,-2.0013,-2.0039,-2.0074,-2.01,-2.014,-2.0161,-2.0169,-2.0211,-2.0227,-2.0274,-2.0285,-2.0318,-2.0381,-2.0409,-2.0431,-2.0474,-2.0482,-2.0486,-2.0499,-2.0526,-2.053,-2.0534,-2.055,-2.0555,-2.049,-2.049,-2.049,0,-2.0018,-2.007,-2.0091,-2.0128,-2.0151,-2.0165,-2.0202,-2.0227,-2.0276,-2.0293,-2.0288,-2.0368,-2.0396,-2.0452,-2.0462,-2.048,-2.0491,-2.048,-2.0528,-2.0532,-2.0536,-2.0551,-2.0557,-2.049,-2.049,-2.049,-2.049,0,-2.0074,-2.011,-2.0134,-2.0181,-2.0207,-2.0243,-2.0271,-2.0295,-2.0307,-2.0328,-2.0376,-2.041,-2.0453,-2.0468,-2.048,-2.0526,-2.0522,-2.0523,-2.0514,-2.0541,-2.0555,-2.0561,-2.049,-2.049,-2.049,-2.049,0,0,-2.0103,-2.0161,-2.0169,-2.0191,-2.0236,-2.0264,-2.0302,-2.0343,-2.0364,-2.0398,-2.043,-2.0484,-2.0484,-2.051,-2.0525,-2.0549,-2.0581,-2.0547,-2.0548,-2.0552,-2.0634,-2.0633,-2.0639,-2.0587,-2.0588,-2.0589,-2.063,0,-2.014,-2.0206,-2.0226,-2.0281,-2.0315,-2.0329,-2.0362,-2.0393,-2.0414,-2.0447,-2.0471,-2.0508,-2.0506,-2.0522,-2.0546,-2.0572,-2.0598,-2.0569,-2.0617,-2.0619,-2.0606,-2.0647,-2.0646,-2.0684,-2.0636,-2.0637,-2.0638,0,-2.0192,-2.0226,-2.0284,-2.0325,-2.034,-2.0369,-2.0409,-2.044,-2.0476,-2.049,-2.0518,-2.0532,-2.0572,-2.0562,-2.0618,-2.0598,-2.0619,-2.0635,-2.0637,-2.0642,-2.0629,-2.0653,-2.0696,-2.0702,-2.0647,-2.0646,-2.0646,0,-2.0207,-2.0268,-2.031,-2.0328,-2.0377,-2.0397,-2.0418,-2.0454,-2.0477,-2.0513,-2.0529,-2.0569,-2.0591,-2.0622,-2.0646,-2.0637,-2.0701,-2.0692,-2.0714,-2.0713,-2.0726,-2.0725,-2.0773,-2.074,-2.074,-2.074,-2.074,0,-2.0246,-2.0281,-2.0317,-2.0343,-2.0383,-2.0407,-2.0446,-2.0469,-2.05,-2.0532,-2.0547,-2.0577,-2.0607,-2.0641,-2.066,-2.0704,-2.0714,-2.0727,-2.0731,-2.0725,-2.0724,-2.0739,-2.0737,-2.0741,-2.0741,-2.0741,-2.074,0,-2.0269,-2.0295,-2.0342,-2.0384,-2.0395,-2.0423,-2.046,-2.0486,-2.0508,-2.0547,-2.0558,-2.0592,-2.0633,-2.066,-2.0713,-2.0726,-2.0773,-2.0778,-2.0761,-2.0763,-2.0782,-2.078,-2.0843,-2.0852,-2.0812,-2.0813,-2.0813,0,-2.0293,-2.032,-2.0364,-2.0386,-2.0407,-2.0442,-2.0466,-2.0491,-2.0516,-2.056,-2.0581,-2.0622,-2.0657,-2.0721,-2.0751,-2.0792,-2.0797,-2.0816,-2.0803,-2.0796,-2.0797,-2.0795,-2.0798,-2.0818,-2.0818,-2.0818,-2.0819,0,-2.0331,-2.0342,-2.0376,-2.0414,-2.0442,-2.0474,-2.0506,-2.0523,-2.0554,-2.0581,-2.0622,-2.0649,-2.0702,-2.0743,-2.0786,-2.0809,-2.0819,-2.0822,-2.083,-2.0823,-2.0812,-2.0818,-2.0766,-2.0821,-2.0821,-2.082,-2.082,-2.082,-2.0355,-2.038,-2.0415,-2.0452,-2.0478,-2.0508,-2.0534,-2.0559,-2.0594,-2.0638,-2.0651,-2.0694,-2.073,-2.0789,-2.0813,-2.0848,-2.0846,-2.0856,-2.0859,-2.0861,-2.0861,-2.0807,-2.0856,-2.0856,-2.0856,-2.0856,-2.0856,0,-2.0394,-2.0418,-2.0451,-2.0495,-2.0524,-2.053,-2.0566,-2.0591,-2.0628,-2.066,-2.0694,-2.0741,-2.0781,-2.0815,-2.0856,-2.0878,-2.0883,-2.0888,-2.0886,-2.0892,-2.086,-2.085,-2.0882,-2.0882,-2.0882,-2.0882,-2.0882,-2.0882,-2.0418,-2.046,-2.0476,-2.0531,-2.0555,-2.0596,-2.0616,-2.0643,-2.0669,-2.0721,-2.0754,-2.0775,-2.0809,-2.0853,-2.089,-2.0899,-2.0914,-2.0917,-2.0927,-2.0897,-2.0894,-2.0891,-2.0881,-2.092,-2.092,-2.0956,-2.0956,-2.0956]},{"header":{"parameterUnit":"m.s-1","parameterCategory":1,"la1":30.2991,"la2":30.254,"lo1":-89.0895,"lo2":-89.0444,"dy":0.0017,"dx":0.0017,"nx":28,"ny":28,"refTime":"2025-04-22T03:00:00:Z","depth":0,"parameterNumber":3,"parameterNumberName":"V-component_of_WINDS"},"data":[0,0,0,0,0,0,0,0,0,0,0,0,0,0,0,0,0,0,0,0,0,0,0,0,0,0,0,0,0,0,0,0,0,0,0,0,0,0,0,0,0,0,0,0,0,0,0,0,0,0,0,0,0,0,0,0,0,0,3.508,3.508,0,3.5083,3.5083,3.5084,3.5084,3.5084,3.5084,3.5084,3.5085,3.5085,3.5085,0,0,0,0,0,0,0,0,0,0,0,0,0,3.5073,3.5073,3.508,3.508,3.508,3.5083,3.5083,3.5084,3.5084,3.5084,3.5084,3.5084,3.5085,3.5085,3.5085,0,0,0,0,0,0,0,0,0,0,0,0,0,3.5076,3.5073,3.508,3.5081,3.5081,3.5083,3.5083,3.5084,3.5084,3.5084,3.5084,3.5084,3.5085,3.5085,3.5085,3.5086,0,0,3.5085,3.5085,0,0,0,0,0,0,0,0,3.5076,3.5077,3.5081,3.5081,3.5081,3.5084,3.5081,3.5084,3.5084,3.5083,3.5084,3.5084,3.5084,3.5084,3.5085,3.5086,3.5086,3.5085,3.5085,3.5085,3.5085,0,0,0,0,0,0,0,3.5076,3.5076,3.5081,3.5081,3.5081,3.5081,3.5081,3.5082,3.5084,3.5083,3.5083,3.5084,3.5084,3.5085,3.5085,3.5086,3.5085,3.5085,3.5085,3.5085,3.5091,3.5091,0,0,0,0,0,0,3.5076,3.5076,3.5081,3.5081,3.5079,3.5081,3.5082,3.5083,3.5084,3.5084,3.5084,3.5084,3.5085,3.5085,3.5085,3.5088,3.5085,3.5085,3.5085,3.5091,3.5091,3.5091,0,0,0,0,0,0,3.5076,3.5076,3.5081,3.5079,3.5079,3.5081,3.5082,3.5083,3.5083,3.5084,3.5084,3.5084,3.5085,3.5085,3.5086,3.5088,3.5085,3.5085,3.509,3.5091,3.5091,3.5092,0,0,0,0,0,0,3.5075,3.5076,3.5076,3.5079,3.508,3.5082,3.5082,3.5083,3.5084,3.5084,3.5085,3.5085,3.5085,3.5086,3.5087,3.5088,3.5085,3.509,3.509,3.5091,3.5092,3.5092,3.5092,0,0,0,0,0,3.5075,3.5075,3.5076,3.5077,3.508,3.5082,3.5083,3.5084,3.5084,3.5084,3.5085,3.5085,3.5088,3.5087,3.5087,3.5088,3.509,3.509,3.5091,3.5091,3.5092,3.5092,0,0,0,0,0,0,3.507,3.5075,3.5076,3.5077,3.508,3.5082,3.5082,3.5084,3.5085,3.5085,3.5086,3.5086,3.5088,3.5088,3.5086,3.509,3.5089,3.5089,3.509,3.509,3.509,3.509,3.5085,0,0,0,0,0,3.507,3.5072,3.5076,3.5076,3.5077,3.508,3.5081,3.5082,3.5084,3.5085,3.5086,3.5087,3.5089,3.509,3.5091,3.5092,3.5093,3.5094,3.5094,3.5094,3.5094,3.5097,3.5098,3.5092,3.5092,3.5092,0,0,3.5067,3.507,3.5071,3.5075,3.5077,3.5079,3.508,3.5082,3.5084,3.5084,3.5087,3.5088,3.509,3.5092,3.5093,3.5092,3.5097,3.5095,3.5095,3.5094,3.5098,3.5098,3.5099,3.5092,3.5092,3.5092,0,0,3.5064,3.5067,3.5068,3.5071,3.5075,3.5078,3.5078,3.5082,3.5083,3.5086,3.5088,3.509,3.5092,3.5094,3.5095,3.5099,3.5098,3.5099,3.51,3.5103,3.5104,3.5104,3.5106,3.5107,3.5099,3.5099,3.5099,0,3.5061,3.5065,3.5069,3.5071,3.5074,3.5077,3.5079,3.5082,3.5085,3.5087,3.5087,3.5092,3.5093,3.5097,3.5099,3.5099,3.51,3.5098,3.5103,3.5104,3.5104,3.5106,3.5107,3.5099,3.5099,3.5099,3.5099,0,3.5061,3.5064,3.5065,3.5071,3.5073,3.5075,3.508,3.5083,3.5085,3.5088,3.5092,3.5094,3.5097,3.5099,3.5099,3.5103,3.5103,3.5103,3.5102,3.5105,3.5107,3.5107,3.5099,3.5099,3.5099,3.5099,0,0,3.5051,3.5063,3.5063,3.5067,3.5074,3.5076,3.508,3.5085,3.5087,3.5091,3.5094,3.5098,3.5099,3.5101,3.5103,3.5106,3.511,3.5106,3.5106,3.5107,3.5116,3.5116,3.5116,3.5111,3.5111,3.5111,3.5116,0,3.505,3.5057,3.5063,3.5067,3.5071,3.5077,3.508,3.5085,3.5089,3.5092,3.5096,3.51,3.51,3.5102,3.5105,3.5108,3.5112,3.5108,3.5114,3.5114,3.5112,3.5117,3.5116,3.5121,3.5117,3.5117,3.5117,0,3.5048,3.5054,3.506,3.5069,3.5071,3.5074,3.508,3.5084,3.509,3.5093,3.5097,3.51,3.5105,3.5105,3.5112,3.511,3.5113,3.5116,3.5116,3.5116,3.5115,3.5117,3.5122,3.5123,3.5118,3.5118,3.5118,0,3.5042,3.5051,3.5057,3.506,3.507,3.5073,3.5077,3.5084,3.5087,3.5093,3.5096,3.5102,3.5105,3.511,3.5115,3.5114,3.5122,3.5122,3.5125,3.5125,3.5125,3.5124,3.513,3.5127,3.5127,3.5127,3.5127,0,3.5039,3.5042,3.5054,3.5057,3.5062,3.507,3.5074,3.5079,3.5086,3.509,3.5095,3.51,3.5106,3.5112,3.5116,3.5122,3.5123,3.5126,3.5127,3.5125,3.5125,3.5126,3.5126,3.5128,3.5128,3.5128,3.5128,0,3.5032,3.504,3.5046,3.5057,3.506,3.5064,3.5073,3.5077,3.5083,3.5089,3.509,3.5099,3.5106,3.5112,3.512,3.5123,3.513,3.5131,3.5128,3.5129,3.5131,3.5131,3.5138,3.5139,3.5136,3.5136,3.5136,0,3.5029,3.5032,3.5045,3.5049,3.5054,3.5061,3.5066,3.5074,3.5078,3.5088,3.5091,3.5099,3.5106,3.5117,3.5124,3.5131,3.5132,3.5134,3.5133,3.5133,3.5133,3.5133,3.5134,3.5134,3.5134,3.5134,3.5134,0,3.5024,3.5029,3.5036,3.5045,3.5051,3.5059,3.5066,3.5069,3.5079,3.5085,3.5093,3.5098,3.5109,3.5117,3.5126,3.5131,3.5134,3.5135,3.5136,3.5134,3.5132,3.5134,3.5128,3.5134,3.5134,3.5134,3.5134,3.5134,3.5019,3.5023,3.5034,3.5042,3.505,3.5057,3.5062,3.507,3.5077,3.5088,3.5092,3.5101,3.511,3.5123,3.5128,3.5136,3.5136,3.5137,3.5138,3.5138,3.5138,3.5132,3.5137,3.5137,3.5137,3.5137,3.5137,0,3.5014,3.5022,3.503,3.5042,3.505,3.5055,3.5064,3.507,3.5078,3.5087,3.5094,3.5105,3.5114,3.5123,3.5133,3.5137,3.5139,3.5139,3.5139,3.514,3.5137,3.5135,3.5138,3.5138,3.5138,3.5138,3.5138,3.5138,3.5013,3.5021,3.5028,3.504,3.5048,3.5058,3.5063,3.5071,3.5079,3.5091,3.5099,3.5106,3.5115,3.5126,3.5135,3.5138,3.5141,3.5141,3.5144,3.514,3.514,3.514,3.5138,3.5142,3.5142,3.5147,3.5147,3.5147]}]]